DW8294 Vamhus SE current weather conditions

sailwx.info

Wind from 055 at 3 knots gusting 8

Air temperature 10.6° C

Last reported at 2020-Jun-06 11:01 UTC.
Time now 2020-Jun-06 11:19 UTC

Location: N 61°08' E 014°25'.
View on Google Maps.

See reports from other nearby stations

  
Tides and Currents Weather Stations Pressure Air Temp Water Temp Dewpoint Dewpoint Depression Visibility Wind Speed Wind Dir Waves Ship Positions
date/time (UTC)wind fromknots sea level pressurealtimeterstation pressurevisibilityair tempwater tempwave heightnotes
2020-Jun-06 11:01 055 3 gusting 8 10.6
2020-Jun-06 10:46 069 1 gusting 6 10.6
2020-Jun-06 10:31 063 2 gusting 12 10.6
2020-Jun-06 10:16 027 3 gusting 11 10.6
2020-Jun-06 10:01 087 5 gusting 12 10.6
2020-Jun-06 09:45 036 7 gusting 14 10.6
2020-Jun-06 09:31 105 4 gusting 12 10.6
2020-Jun-06 09:16 049 9 gusting 16 10.6
2020-Jun-06 09:00 040 7 gusting 18 10.6
2020-Jun-06 08:45 044 5 gusting 19 10.6
2020-Jun-06 08:30 059 9 gusting 19 10.6
2020-Jun-06 08:15 081 10 gusting 15 10.0
2020-Jun-06 08:00 004 6 gusting 15 10.6
2020-Jun-06 07:47 031 3 gusting 11 10.6
2020-Jun-06 07:31 065 4 gusting 10 10.6
2020-Jun-06 07:16 083 1 gusting 7 10.0
2020-Jun-06 07:01 358 1 gusting 12 10.6
2020-Jun-06 06:46 043 6 gusting 13 10.6
2020-Jun-06 06:31 059 5 gusting 13 10.6
2020-Jun-06 06:15 043 3 gusting 12 10.6
2020-Jun-06 06:00 320 3 gusting 11 10.0
2020-Jun-06 05:46 030 2 gusting 11 10.0
2020-Jun-06 05:31 068 3 gusting 13 10.0
2020-Jun-06 05:16 051 1 gusting 13 10.0
2020-Jun-06 05:01 065 2 gusting 8 10.0
2020-Jun-06 04:46 021 10.0
2020-Jun-06 04:31 039 10.0
2020-Jun-06 04:16 006 1 gusting 6 10.0
2020-Jun-06 04:01 018 10.0
2020-Jun-06 03:45 045 10.0
2020-Jun-06 03:30 046 10.0
2020-Jun-06 03:16 083 0 gusting 6 10.0
2020-Jun-06 03:00 150 0 gusting 5 10.0
2020-Jun-06 02:45 126 10.0
2020-Jun-06 02:30 070 10.0
2020-Jun-06 02:16 021 10.0
2020-Jun-06 02:03 041 10.0
2020-Jun-06 01:46 098 10.0
2020-Jun-06 01:31 100 10.0
2020-Jun-06 01:15 082 1 gusting 6 10.0
2020-Jun-06 01:00 083 0 gusting 6 10.0
2020-Jun-06 00:46 059 2 gusting 7 10.0
2020-Jun-06 00:30 071 0 gusting 8 10.0
2020-Jun-06 00:15 021 2 gusting 7 10.0
2020-Jun-06 00:00 051 10.0
2020-Jun-05 23:45 082 0 gusting 6 10.0
2020-Jun-05 23:30 055 10.0
2020-Jun-05 23:15 091 10.6
2020-Jun-05 23:00 106 2 gusting 5 10.6
2020-Jun-05 22:45 115 11.1
2020-Jun-05 22:30 113 11.1
2020-Jun-05 22:15 156 11.7
2020-Jun-05 22:02 135 5 gusting 10 11.7
2020-Jun-05 21:47 056 3 gusting 12 11.7
2020-Jun-05 21:32 069 4 gusting 9 11.7
2020-Jun-05 21:02 106 2 gusting 13 12.2
2020-Jun-05 20:48 076 6 gusting 13 12.2
2020-Jun-05 20:33 066 4 gusting 10 12.2
2020-Jun-05 20:16 100 6 gusting 11 12.8
2020-Jun-05 20:02 102 7 gusting 13 12.8
2020-Jun-05 19:46 075 4 gusting 12 12.8
2020-Jun-05 19:31 065 5 gusting 13 13.3
2020-Jun-05 19:16 092 6 gusting 13 13.3
2020-Jun-05 19:01 075 7 gusting 13 13.3
2020-Jun-05 18:46 060 6 gusting 13 13.9
2020-Jun-05 18:30 052 3 gusting 15 13.9
2020-Jun-05 18:15 073 4 gusting 15 13.9
2020-Jun-05 18:01 069 7 gusting 19 14.4
2020-Jun-05 17:46 090 6 gusting 12 14.4
2020-Jun-05 17:30 084 3 gusting 7 14.4
2020-Jun-05 17:15 061 1 gusting 6 13.9
2020-Jun-05 17:00 071 13.9
2020-Jun-05 16:45 071 13.9
2020-Jun-05 16:30 070 13.9
2020-Jun-05 16:15 061 13.9
2020-Jun-05 16:00 067 0 gusting 4 14.4
2020-Jun-05 15:45 073 0 gusting 4 14.4
2020-Jun-05 15:31 081 1 gusting 3 14.4
2020-Jun-05 15:15 064 14.4
2020-Jun-05 15:00 077 0 gusting 4 14.4
2020-Jun-05 14:45 051 14.4
2020-Jun-05 14:30 172 0 gusting 5 15.0
2020-Jun-05 14:15 110 6 gusting 19 16.1
2020-Jun-05 14:00 129 6 gusting 10 17.2
2020-Jun-05 13:45 133 4 gusting 7 17.8
2020-Jun-05 13:30 129 5 gusting 11 17.8
2020-Jun-05 13:15 080 5 gusting 11 17.8
2020-Jun-05 13:00 083 4 gusting 10 17.8
2020-Jun-05 12:45 084 2 gusting 13 18.3
2020-Jun-05 12:30 093 5 gusting 13 18.3
2020-Jun-05 12:15 103 2 gusting 9 18.3
2020-Jun-05 12:00 090 6 gusting 14 18.3
2020-Jun-05 11:45 094 7 gusting 14 18.9
2020-Jun-05 11:30 101 5 gusting 14 18.9
2020-Jun-05 11:15 098 3 gusting 12 18.9
2020-Jun-05 11:00 062 7 gusting 16 19.4
2020-Jun-05 10:47 095 6 gusting 13 20.0
2020-Jun-05 10:31 103 6 gusting 14 20.0
2020-Jun-05 10:16 142 7 gusting 18 18.9
2020-Jun-05 10:02 071 10 gusting 19 18.9
2020-Jun-05 09:46 089 6 gusting 14 19.4
2020-Jun-05 09:31 061 4 gusting 12 18.9
2020-Jun-05 09:16 065 6 gusting 13 18.3
2020-Jun-05 09:01 056 6 gusting 13 17.8
2020-Jun-05 08:46 096 3 gusting 9 16.7
2020-Jun-05 08:30 086 7 gusting 16 17.2
2020-Jun-05 08:16 093 6 gusting 15 16.7
2020-Jun-05 08:01 117 6 gusting 13 16.7
2020-Jun-05 07:46 098 6 gusting 10 16.1
2020-Jun-05 07:31 101 4 gusting 9 15.6
2020-Jun-05 07:15 056 0 gusting 4 14.4
2020-Jun-05 07:01 094 13.9
2020-Jun-05 06:45 088 13.3
2020-Jun-05 06:30 077 12.8
2020-Jun-05 06:16 104 12.2
2020-Jun-05 06:01 104 11.7
2020-Jun-05 05:45 106 11.7
2020-Jun-05 05:30 106 11.1
2020-Jun-05 05:16 088 11.1
2020-Jun-05 05:00 089 11.1
2020-Jun-05 04:45 088 11.1
2020-Jun-05 04:31 088 11.1
2020-Jun-05 04:16 075 0 gusting 2 11.1
2020-Jun-05 04:01 071 11.1
2020-Jun-05 03:45 066 11.1
2020-Jun-05 03:30 054 11.1
2020-Jun-05 03:15 075 11.1
2020-Jun-05 03:00 052 0 gusting 4 11.1
2020-Jun-05 02:45 093 11.1
2020-Jun-05 02:30 043 0 gusting 5 11.1
2020-Jun-05 02:15 096 0 gusting 5 11.1
2020-Jun-05 02:00 086 11.1
2020-Jun-05 01:45 097 11.1
2020-Jun-05 01:30 096 0 gusting 6 11.1
2020-Jun-05 01:15 096 2 gusting 4 11.1
2020-Jun-05 01:00 072 0 gusting 6 11.1
2020-Jun-05 00:45 090 1 gusting 5 11.1
2020-Jun-05 00:30 077 1 gusting 6 11.1
2020-Jun-05 00:17 086 1 gusting 5 11.7
2020-Jun-05 00:02 113 0 gusting 4 11.7
2020-Jun-04 23:46 094 0 gusting 4 11.7
2020-Jun-04 23:31 096 1 gusting 6 11.7
2020-Jun-04 23:16 096 3 gusting 7 11.7
2020-Jun-04 23:01 094 11.7
2020-Jun-04 22:46 077 12.2
2020-Jun-04 22:31 068 3 gusting 7 12.2
2020-Jun-04 22:16 089 0 gusting 6 12.2
2020-Jun-04 22:02 106 1 gusting 6 12.2
2020-Jun-04 21:46 115 1 gusting 10 12.2
2020-Jun-04 21:31 090 1 gusting 6 11.7
2020-Jun-04 21:16 098 0 gusting 4 11.7
2020-Jun-04 21:01 083 12.2
2020-Jun-04 20:46 088 12.2
2020-Jun-04 20:31 083 0 gusting 2 12.2
2020-Jun-04 20:16 063 12.8
2020-Jun-04 20:01 083 0 gusting 5 12.8
2020-Jun-04 19:46 079 13.3
2020-Jun-04 19:31 092 13.9
2020-Jun-04 19:16 096 0 gusting 3 14.4
2020-Jun-04 19:01 081 1 gusting 5 15.0
2020-Jun-04 18:47 104 1 gusting 6 15.0
2020-Jun-04 18:31 094 0 gusting 6 15.6
2020-Jun-04 18:16 107 2 gusting 10 16.1
2020-Jun-04 18:02 127 1 gusting 7 16.1
2020-Jun-04 17:45 079 0 gusting 7 16.1
2020-Jun-04 17:31 091 1 gusting 6 16.1
2020-Jun-04 17:16 134 16.1
2020-Jun-04 17:02 111 2 gusting 5 16.7
2020-Jun-04 16:46 115 2 gusting 6 16.7
2020-Jun-04 16:31 129 1 gusting 5 16.7
2020-Jun-04 16:15 117 2 gusting 9 17.2
2020-Jun-04 16:00 106 2 gusting 9 17.2
2020-Jun-04 15:46 138 3 gusting 7 17.2
2020-Jun-04 15:31 141 4 gusting 10 17.8
2020-Jun-04 15:16 138 4 gusting 13 17.8
2020-Jun-04 15:00 132 5 gusting 13 17.8
2020-Jun-04 14:45 130 5 gusting 17 18.3
2020-Jun-04 14:31 153 6 gusting 15 18.3
2020-Jun-04 14:15 104 7 gusting 15 18.3
2020-Jun-04 14:01 131 5 gusting 13 18.3
2020-Jun-04 13:45 165 7 gusting 14 18.3
2020-Jun-04 13:30 104 6 gusting 12 18.9
2020-Jun-04 13:15 075 4 gusting 13 20.0
2020-Jun-04 13:00 171 7 gusting 12 19.4
2020-Jun-04 12:45 320 5 gusting 13 19.4
2020-Jun-04 12:30 119 6 gusting 13 19.4
2020-Jun-04 12:15 140 7 gusting 16 19.4
2020-Jun-04 12:00 113 6 gusting 13 19.4
2020-Jun-04 11:45 146 3 gusting 13 18.9
2020-Jun-04 11:30 160 4 gusting 13 18.9
2020-Jun-04 11:15 124 5 gusting 13 18.3
2020-Jun-04 11:00 134 5 gusting 13 17.8